EW9040 Blaine WA US current weather conditions

sailwx.info

Wind from 115 at 3 knots

Air temperature 15.6° C
Dewpoint 11.3° C

Last reported at 2020-Jul-08 04:00 UTC.
Time now 2020-Jul-08 04:18 UTC

Location: N 48°59' W 122°46'.
View on Google Maps.

See reports from other nearby stations

  
Tides and Currents Weather Stations Pressure Air Temp Water Temp Dewpoint Dewpoint Depression Visibility Wind Speed Wind Dir Waves Ship Positions
date/time (UTC)wind fromknots sea level pressurealtimeterstation pressurevisibilityair tempwater tempwave heightnotes
2020-Jul-08 04:00 115 3 15.6
2020-Jul-08 03:51 135 3 15.6
2020-Jul-08 03:41 138 3 15.6
2020-Jul-08 03:32 135 3 16.1
2020-Jul-08 03:23 137 4 16.1
2020-Jul-08 03:13 137 5 16.1
2020-Jul-08 03:04 146 6 16.1
2020-Jul-08 02:55 141 6 16.1
2020-Jul-08 02:45 152 7 16.1
2020-Jul-08 02:35 154 8 16.1
2020-Jul-08 02:25 159 7 16.7
2020-Jul-08 02:15 149 6 16.7
2020-Jul-08 02:06 170 5 17.2
2020-Jul-08 01:57 151 5 17.2
2020-Jul-08 01:47 135 4 17.2
2020-Jul-08 01:38 147 6 17.2
2020-Jul-08 01:28 156 7 16.7
2020-Jul-08 01:19 146 6 17.2
2020-Jul-08 01:09 159 6 16.7
2020-Jul-08 00:59 163 6 16.7
2020-Jul-08 00:49 150 6 16.7
2020-Jul-08 00:40 163 6 16.7
2020-Jul-08 00:30 179 8 17.2
2020-Jul-08 00:21 167 6 17.2
2020-Jul-08 00:12 181 6 17.8
2020-Jul-08 00:02 167 8 17.8
2020-Jul-07 23:53 167 6 17.8
2020-Jul-07 23:43 162 8 17.8
2020-Jul-07 23:34 163 6 17.8
2020-Jul-07 23:24 175 6 17.8
2020-Jul-07 23:14 152 7 17.8
2020-Jul-07 23:04 169 9 17.8
2020-Jul-07 22:55 164 8 17.2
2020-Jul-07 22:45 179 9 17.2
2020-Jul-07 22:35 161 10 17.8
2020-Jul-07 22:26 170 9 17.2
2020-Jul-07 22:17 165 9 17.8
2020-Jul-07 22:07 168 8 17.2
2020-Jul-07 21:57 167 8 17.2
2020-Jul-07 21:48 166 9 17.8
2020-Jul-07 21:39 171 11 17.2
2020-Jul-07 21:29 153 10 17.2
2020-Jul-07 21:02 154 8 17.2
2020-Jul-07 20:52 156 8 17.2
2020-Jul-07 20:42 159 7 17.2
2020-Jul-07 20:32 151 7 17.2
2020-Jul-07 20:22 158 6 17.2
2020-Jul-07 17:10 141 6 15.0
2020-Jul-07 17:01 149 5 14.4
2020-Jul-07 16:51 170 7 14.4
2020-Jul-07 16:41 158 6 15.0
2020-Jul-07 16:32 161 6 15.0
2020-Jul-07 16:22 146 6 15.0
2020-Jul-07 16:13 140 6 15.0
2020-Jul-07 16:04 141 7 14.4
2020-Jul-07 13:17 122 6 13.3
2020-Jul-07 13:08 130 6 13.3
2020-Jul-07 12:58 121 6 13.3
2020-Jul-07 12:48 119 4 13.9
2020-Jul-07 12:39 114 6 13.9
2020-Jul-07 12:29 089 3 13.9
2020-Jul-07 12:20 099 3 13.9
2020-Jul-07 12:10 111 5 13.9
2020-Jul-07 12:01 099 4 13.9
2020-Jul-07 11:52 103 5 13.9
2020-Jul-07 11:42 108 5 13.9
2020-Jul-07 11:32 118 4 13.9
2020-Jul-07 11:23 125 3 14.4
2020-Jul-07 11:13 109 4 14.4
2020-Jul-07 11:04 138 4 14.4
2020-Jul-07 10:54 127 6 14.4
2020-Jul-07 10:44 125 6 14.4
2020-Jul-07 10:34 133 5 14.4
2020-Jul-07 10:25 115 6 14.4
2020-Jul-07 10:15 135 6 15.0
2020-Jul-07 10:05 137 7 15.0
2020-Jul-07 09:56 138 8 15.0
2020-Jul-07 09:46 165 10 15.0
2020-Jul-07 09:37 170 11 15.0
2020-Jul-07 09:27 165 8 15.0
2020-Jul-07 09:18 161 7 15.0
2020-Jul-07 09:08 152 7 15.0
2020-Jul-07 08:59 156 6 15.0
2020-Jul-07 08:49 154 8 15.0
2020-Jul-07 08:39 143 8 15.0
2020-Jul-07 08:29 175 13 15.0
2020-Jul-07 08:20 173 12 15.0
2020-Jul-07 08:10 164 9 15.0
2020-Jul-07 08:00 175 11 15.0
2020-Jul-07 07:50 162 10 15.6
2020-Jul-07 07:41 157 10 15.6
2020-Jul-07 07:31 159 10 15.6
2020-Jul-07 07:21 155 9 15.6
2020-Jul-07 07:12 143 8 15.6
2020-Jul-07 07:02 137 5 15.6
2020-Jul-07 06:52 117 4 15.6
2020-Jul-07 06:43 107 4 15.6
2020-Jul-07 06:33 111 5 15.6
2020-Jul-07 06:23 122 5 16.1
2020-Jul-07 06:14 129 4 16.1
2020-Jul-07 06:04 155 6 16.1
2020-Jul-07 05:55 159 6 16.1
2020-Jul-07 05:45 152 5 15.6
2020-Jul-07 05:36 134 4 15.6
2020-Jul-07 05:26 120 4 15.6
2020-Jul-07 05:16 120 4 15.6
2020-Jul-07 05:07 114 5 16.1
2020-Jul-07 04:58 112 5 16.1
2020-Jul-07 04:48 111 6 16.1
2020-Jul-07 04:38 114 4 16.1
2020-Jul-07 04:29 104 6 16.7
2020-Jul-07 04:20 111 5 16.7
2020-Jul-07 04:10 112 6 16.7
2020-Jul-07 04:00 115 4 16.7
2020-Jul-07 03:51 115 4 17.2
2020-Jul-07 03:42 124 4 17.2
2020-Jul-07 03:32 135 5 17.2
2020-Jul-07 03:22 141 4 17.2
2020-Jul-07 03:13 135 5 17.8
2020-Jul-07 03:03 148 5 17.8
2020-Jul-07 02:53 138 5 17.8
2020-Jul-07 02:43 146 5 17.8
2020-Jul-07 02:33 138 5 17.8
2020-Jul-07 02:24 139 5 17.8
2020-Jul-07 02:14 144 5 17.8
2020-Jul-07 02:05 141 5 18.3
2020-Jul-07 01:55 142 5 18.3
2020-Jul-07 01:46 137 5 18.3
2020-Jul-07 01:37 146 6 18.3
2020-Jul-07 01:28 154 5 18.3
2020-Jul-07 01:18 177 6 18.3
2020-Jul-07 01:08 168 6 18.3
2020-Jul-07 00:59 159 6 18.9
2020-Jul-07 00:49 168 6 18.3
2020-Jul-07 00:40 160 6 18.9
2020-Jul-07 00:30 168 6 18.3
2020-Jul-07 00:21 167 6 18.9
2020-Jul-07 00:11 151 5 18.9
2020-Jul-07 00:01 157 6 18.3
2020-Jul-06 23:52 167 6 18.9
2020-Jul-06 23:43 151 6 18.9
2020-Jul-06 23:34 175 6 18.9
2020-Jul-06 23:24 158 5 18.3
2020-Jul-06 23:14 161 6 18.3
2020-Jul-06 23:04 158 6 17.8
2020-Jul-06 22:54 169 8 17.8
2020-Jul-06 22:44 165 9 17.8
2020-Jul-06 22:34 162 9 17.8
2020-Jul-06 22:24 167 11 17.8
2020-Jul-06 22:14 155 6 17.8
2020-Jul-06 22:04 159 5 18.3
2020-Jul-06 21:55 150 6 18.3
2020-Jul-06 21:45 160 6 18.3
2020-Jul-06 21:35 173 7 17.8
2020-Jul-06 21:25 146 6 17.2
2020-Jul-06 21:16 159 8 16.7
2020-Jul-06 21:06 160 10 16.7
2020-Jul-06 20:57 160 11 17.2
2020-Jul-06 20:47 174 13 17.2
2020-Jul-06 20:37 164 11 17.8
2020-Jul-06 20:28 180 11 18.3
2020-Jul-06 20:19 177 7 18.3
2020-Jul-06 20:09 145 6 18.3
2020-Jul-06 20:00 159 6 17.8
2020-Jul-06 19:50 158 6 18.3
2020-Jul-06 19:40 172 7 17.8
2020-Jul-06 19:31 182 6 17.2
2020-Jul-06 19:22 163 7 17.8
2020-Jul-06 19:12 164 7 18.3
2020-Jul-06 19:03 149 6 18.9
2020-Jul-06 18:54 141 3 18.3
2020-Jul-06 18:44 170 6 17.8
2020-Jul-06 18:34 150 5 17.2
2020-Jul-06 18:24 163 6 17.2
2020-Jul-06 18:14 170 6 17.8
2020-Jul-06 18:05 170 5 18.3
2020-Jul-06 17:56 157 3 17.8
2020-Jul-06 17:46 146 2 17.2
2020-Jul-06 17:36 142 3 16.7
2020-Jul-06 17:27 146 4 16.1
2020-Jul-06 17:18 140 3 16.1
2020-Jul-06 17:08 164 3 16.1
2020-Jul-06 16:59 156 3 15.6
2020-Jul-06 16:50 173 5 16.1
2020-Jul-06 16:41 138 5 16.1
2020-Jul-06 16:31 140 3 15.6
2020-Jul-06 16:21 137 6 15.0
2020-Jul-06 16:11 135 5 15.0
2020-Jul-06 16:02 136 4 15.0
2020-Jul-06 15:52 135 2 14.4
2020-Jul-06 15:43 112 4 14.4
2020-Jul-06 15:33 127 3 14.4
2020-Jul-06 15:24 122 4 13.9
2020-Jul-06 15:15 114 5 13.9
2020-Jul-06 15:06 124 4 13.9
2020-Jul-06 14:56 118 4 13.9
2020-Jul-06 14:47 126 6 13.9
2020-Jul-06 14:38 110 4 13.9
2020-Jul-06 14:28 111 3 13.9
2020-Jul-06 14:18 120 4 13.3
2020-Jul-06 14:08 098 2 13.3
2020-Jul-06 13:59 096 4 13.3
2020-Jul-06 13:50 110 3 12.8
2020-Jul-06 13:41 109 3 12.8
2020-Jul-06 13:31 120 6 12.8
2020-Jul-06 13:21 116 6 12.8
2020-Jul-06 13:12 114 6 12.8
2020-Jul-06 13:03 111 6 12.2
2020-Jul-06 12:53 098 5 12.2
2020-Jul-06 12:44 096 5 12.2
2020-Jul-06 12:34 101 5 12.2
2020-Jul-06 12:25 103 4 12.2
2020-Jul-06 12:15 098 4 12.8
2020-Jul-06 12:05 106 4 12.8
2020-Jul-06 11:56 110 4 12.8
2020-Jul-06 11:47 113 3 12.8
2020-Jul-06 11:38 112 4 12.8
2020-Jul-06 11:28 094 3 12.8
2020-Jul-06 11:19 106 3 12.8
2020-Jul-06 11:10 099 2 12.8
2020-Jul-06 11:00 099 3 12.8
2020-Jul-06 10:50 094 3 12.8
2020-Jul-06 10:40 101 3 12.8
2020-Jul-06 10:30 094 1 13.3
2020-Jul-06 10:20 083 2 13.3
2020-Jul-06 10:10 090 3 13.3
2020-Jul-06 10:01 067 1 13.3
2020-Jul-06 09:52 066 2 13.3
2020-Jul-06 09:42 072 2 13.3
2020-Jul-06 09:32 101 0 13.3
2020-Jul-06 09:23 099 2 13.3
2020-Jul-06 09:13 102 3 13.3
2020-Jul-06 09:04 104 0 13.9
2020-Jul-06 08:54 095 2 13.9
2020-Jul-06 08:44 091 2 13.9
2020-Jul-06 08:34 091 3 13.9
2020-Jul-06 08:25 091 3 13.9
2020-Jul-06 08:15 095 3 13.9
2020-Jul-06 08:06 101 2 13.9
2020-Jul-06 07:56 099 4 13.9
2020-Jul-06 07:46 098 5 13.9
2020-Jul-06 07:37 094 4 14.4
2020-Jul-06 07:27 095 4 14.4
2020-Jul-06 07:17 101 2 14.4
2020-Jul-06 07:08 110 3 14.4
2020-Jul-06 06:59 119 3 14.4
2020-Jul-06 06:49 114 2 14.4
2020-Jul-06 06:40 109 4 14.4
2020-Jul-06 06:30 098 2 14.4
2020-Jul-06 06:21 108 2 15.0
2020-Jul-06 06:11 113 3 15.0
2020-Jul-06 06:01 119 3 15.0
2020-Jul-06 05:51 112 3 15.6
2020-Jul-06 05:41 112 1 15.6
2020-Jul-06 05:32 110 1 15.6
2020-Jul-06 05:23 112 1 15.6
2020-Jul-06 05:13 112 2 16.1
2020-Jul-06 05:03 119 1 16.7
2020-Jul-06 04:54 135 1 16.7
2020-Jul-06 04:44 112 0 16.7
2020-Jul-06 04:34 112 1 16.7
2020-Jul-06 04:25 131 2 16.7
2020-Jul-06 04:15 136 2 17.2
2020-Jul-06 04:05 146 2 17.2